Location: Svitavy
(49.7500°N, 16.4667°E)
Time: 14:46:37
(UTC+02:00)

ISS - Visible Passes

Search period start: 06 May 2021 00:00
Search period end: 16 May 2021 00:00
Orbit: 418 x 421 km, 51.6° (Epoch: 05 May)

Date Brightness Start Highest point End Pass type
(mag) Time Alt. Az. Time Alt. Az. Time Alt. Az.
06 May -3.8 02:48:19 67° S 02:48:24 67° SSE 02:51:47 10° ENE visible
06 May -3.3 04:21:56 10° W 04:25:18 61° N 04:28:39 10° ENE visible
07 May -2.2 02:02:24 29° E 02:02:24 29° E 02:04:19 10° ENE visible
07 May -3.4 03:35:20 17° W 03:37:49 66° N 03:41:12 10° ENE visible
08 May -1.0 01:16:27 12° E 01:16:27 12° E 01:16:47 10° E visible
08 May -3.7 02:49:23 43° W 02:50:21 76° NNW 02:53:44 10° ENE visible
08 May -3.3 04:23:59 10° WNW 04:27:21 64° N 04:30:44 10° E visible
09 May -3.4 02:03:25 61° ENE 02:03:25 61° ENE 02:06:17 10° ENE visible
09 May -3.2 03:36:31 10° W 03:39:52 60° N 03:43:14 10° E visible
10 May -1.8 01:17:25 23° E 01:17:25 23° E 01:18:50 10° ENE visible
10 May -3.3 02:50:22 22° WNW 02:52:22 61° N 02:55:44 10° ENE visible
10 May -3.7 04:25:57 10° WNW 04:29:21 88° N 04:32:44 10° ESE visible
11 May -3.4 02:04:19 53° WNW 02:04:53 66° N 02:08:15 10° ENE visible
11 May -3.5 03:38:30 10° WNW 03:41:53 73° N 03:45:16 10° E visible
12 May -3.0 01:18:13 47° ENE 01:18:13 47° ENE 01:20:47 10° ENE visible
12 May -3.4 02:51:09 11° WNW 02:54:24 64° N 02:57:46 10° E visible
12 May -3.6 04:27:54 10° WNW 04:31:13 53° SSW 04:34:31 10° SE visible
13 May -1.8 00:32:04 21° ENE 00:32:04 21° ENE 00:33:20 10° ENE visible
13 May -3.3 02:04:58 23° WNW 02:06:54 60° N 02:10:15 10° E visible
13 May -3.9 03:40:26 10° WNW 03:43:49 72° SSW 03:47:11 10° ESE visible
13 May -1.1 23:45:40 11° ENE 23:45:40 11° ENE 23:45:52 10° ENE visible
14 May -3.3 01:18:34 43° WNW 01:19:23 61° N 01:22:45 10° ENE visible
14 May -3.8 02:52:59 10° WNW 02:56:22 88° NNE 02:59:45 10° ESE visible
14 May -2.7 04:30:03 10° W 04:32:55 26° SW 04:35:46 10° SSE visible
14 May -1.7 21:18:03 10° SSE 21:18:56 11° SE 21:19:47 10° ESE visible
14 May -3.6 22:51:50 10° SW 22:55:05 49° SSE 22:58:22 10° ENE visible
15 May -3.4 00:28:31 10° W 00:31:54 66° N 00:35:15 10° ENE visible
15 May -3.6 02:05:30 10° WNW 02:08:54 73° NNE 02:12:16 10° E visible
15 May -3.2 03:42:26 10° W 03:45:35 37° SSW 03:48:43 10° SE visible
15 May -3.2 22:04:38 10° SW 22:07:43 34° SSE 22:10:50 10° E visible
15 May -3.7 23:41:01 10° W 23:44:23 75° NNW 23:47:46 10° ENE visible
